OBJECT C, 56745

Orbit data source: Space-Track

You're viewing an Uncataloged Satellite

Recently launched and/or uncataloged satellites may have evolving metadata. Metadata may include but not limited to: Owner, Maufacturer, Bus, Motor, and Mission.

OBJECT C, 56745 is a satellite owned by KASI (KR) in SSO that was launched on Thu, 25 May 2023 UTC via an NURI launch vehicle from the Naro Space Center, South Korea (NSC). Unknown objects in Earth's orbit typically refer to objects detected orbiting the Earth but have not yet been identified or cataloged. These objects could be anything from previously untracked satellites, spent rocket stages, debris from satellite collisions, or even natural meteoroids temporarily captured by Earth's gravity.

Loading next visibility...
Identifier
56745, 2023-072C
Orbit
SSO
Country
Flag of KRKR / SKOR
Related business
Flag of KRKorea Astronomy and Space Science Institute (KR)
Manufacturer
KASI
Mission
Operational Civil Ast/Sci
Bus & Motor
CUBESAT 6U, Unknown motor
Mass
10 kg wet, 10 kg dry
Launch date (UTC)
2023-05-25 (3 years ago)
Launch vehicle
NURI
Launch site
Naro Space Center, South Korea (NSC)
Object type
Unknown
Shape & HBR
Box + 2 Pan, 0.3 m
Radar Cross Section
0.054 m², Medium (>0.1 m² and < 1m²)

Expand to show TLE details & history
Last TLE update: 11 hours ago

TLE from 11 hours ago
0 OBJECT C
1 56745U 23072C   26171.55573310  .00023368  00000-0  46402-3 0  9998
2 56745  97.5244  20.7349 0003785   2.3227 357.8039 15.46992371170767
Epoch: 2026-06-20T13:20Z
TLE epoch observation values (Epoch: 2026-06-20T13:20:15.339Z)
Latitude
-0.00007°
Longitude
-88.09767°
Altitude
426.08 km
Speed
7.657 km/s
True Right ascension
01h 22m 56s
True Declination
0° 00' 00"
Sunlit
Object was in daylight at epoch
Visualization orbit readout
Latitude
Unknown
Longitude
Unknown
Altitude
Unknown
Speed
Unknown
Apparent Right ascension
Unknown
Apparent Declination
Unknown
Sunlit
N/A
Visualization observer readout
Local Sidereal Time
10:58:44
Azimuth
Unknown
Elevation
Unknown
Doppler factor
Unknown
Orbital elements
Apogee altitude
425.039 km
Perigee altitude
419.891 km
Semi-major axis
6,800.602 km
Eccentricity
0.00038
Inclination
97.5244°
RAAN
20.7349°
Arg. of periapsis
2.3227°
True anomaly
357.80224°
Mean anomaly
357.8039°
Eccentric anomaly
357.80307°
Mean motion
3.8701 °/min
Orbital period
93.02 mins
BSTAR
0.00046402
Loading maneuver chart data...
Computing Atmospheric mass density...
Loading historical data...
Loading historical data...
Loading historical data...
Loading historical data...
Loading historical data...
Loading historical data...
Loading historical data...

Documentation

Showing up to 5 results
|